EHI
0 0 0 0 0 0 0 0 0 0 0 0 0 0 0 0 0 0 2 7 13 13 11 7 4 1 0 0 0 0 0 0 0 0 0 0 0 0 0 0 0 0 0
0 0 0 0 0 0 0 0 0 0 0 0 0 0 0 0 0 0 1 4 11 14 14 10 7 4 2 1 1 1 1 0 0 0 0 0 0 0 0 0 0 0 0
1 0 0 0 0 0 0 0 0 0 0 0 0 0 0 0 0 0 0 1 5 11 12 12 10 8 6 5 4 3 3 1 1 0 0 0 0 0 0 0 0 0 0
2 1 0 0 0 0 0 0 0 0 0 0 0 0 0 0 0 0 0 0 1 4 6 9 11 11 11 10 9 8 7 5 3 1 0 0 0 0 0 0 0 0 0
3 2 2 2 1 1 0 0 0 0 0 0 0 0 0 0 0 0 0 0 0 0 1 4 8 11 12 13 14 13 12 10 8 5 2 1 0 0 0 0 0 0 0
4 3 3 3 3 2 1 0 0 0 0 0 0 0 0 0 0 0 0 0 0 0 0 1 3 7 10 13 14 14 14 14 12 9 6 4 1 0 0 0 0 0 0
5 4 3 3 3 2 1 0 0 0 0 0 0 0 0 0 0 0 0 0 0 1 1 0 1 2 5 7 9 12 14 14 13 12 10 7 4 2 0 0 0 0 0
7 7 5 4 4 3 2 0 0 1 1 1 1 0 0 0 0 0 0 0 0 0 1 1 1 1 2 3 4 7 11 13 12 12 11 9 7 4 2 1 0 0 0
10 9 8 7 7 6 5 3 2 2 3 3 1 0 0 0 0 0 0 0 0 0 0 0 1 1 2 2 2 4 8 11 11 11 10 9 6 4 2 2 1 0 0
11 11 11 11 10 9 8 6 4 3 4 3 2 0 0 0 0 0 0 0 0 0 0 0 0 1 2 3 3 3 5 6 8 10 9 7 4 3 2 2 1 0 0
12 13 13 13 11 10 8 7 5 4 3 3 2 1 1 0 0 0 0 0 0 0 0 0 0 0 1 2 2 2 2 2 3 5 6 5 3 3 2 2 1 0 0
11 12 13 13 12 10 8 7 6 4 3 3 3 3 2 1 0 0 0 0 0 0 0 0 0 0 0 1 1 1 1 1 0 1 2 2 2 3 3 3 2 1 1
7 9 12 14 13 12 9 7 5 3 2 2 2 2 2 1 1 1 1 1 1 1 0 0 0 0 0 0 0 0 0 0 0 0 0 1 1 1 2 3 3 3 2
5 7 10 13 14 13 10 7 4 2 2 1 1 1 1 1 2 2 2 2 2 1 0 0 0 0 0 0 0 0 0 0 0 0 0 1 0 0 1 2 2 3 3
5 7 10 12 13 12 11 8 5 3 2 2 1 1 1 1 3 3 3 3 3 2 1 0 0 0 0 0 0 0 0 0 0 0 0 0 0 0 0 1 1 1 2
7 9 10 11 12 12 11 9 6 4 3 4 3 3 2 3 3 3 3 3 3 2 1 0 0 0 0 0 0 0 0 0 0 0 0 0 0 0 0 0 0 0 1
9 9 10 11 12 12 10 7 5 4 4 5 5 4 3 2 2 3 3 3 3 1 1 0 0 0 0 0 0 0 0 0 0 0 0 0 0 0 0 0 0 0 0
11 9 8 10 12 11 10 8 6 5 7 7 7 4 2 1 1 1 2 2 2 1 0 0 0 0 0 0 0 0 0 0 0 0 0 0 0 0 0 0 0 0 0
15 12 10 12 12 11 11 9 8 8 9 10 8 5 3 2 1 0 1 1 1 0 0 0 0 0 0 0 0 0 0 0 0 0 0 0 0 0 0 0 0 0 0
20 18 15 15 14 12 12 11 9 8 9 10 8 5 5 4 2 0 0 0 0 0 0 0 0 0 0 0 0 0 0 0 0 0 0 0 0 0 0 0 0 0 0
21 20 19 17 15 13 11 10 9 7 7 6 5 5 5 4 2 0 0 0 0 0 0 0 1 1 1 0 0 0 0 0 0 0 0 0 0 0 0 0 0 0 0
20 18 18 17 14 11 8 7 7 6 4 4 4 5 4 3 1 1 1 1 0 0 0 1 2 2 2 1 0 0 0 0 0 0 0 0 0 0 0 0 0 0 0
20 18 17 16 14 10 6 4 4 4 4 4 4 5 4 2 1 2 2 1 0 0 0 2 3 3 3 1 0 0 0 0 0 0 0 0 0 0 0 0 0 0 0
20 17 15 13 11 8 5 3 4 4 5 5 6 6 6 4 2 2 2 1 0 0 0 1 2 3 3 2 1 0 0 0 0 0 0 0 0 0 0 0 0 0 0
18 16 14 11 8 6 4 3 3 4 4 5 6 6 5 4 2 2 2 2 1 0 1 1 1 2 3 2 1 0 0 0 0 0 0 0 0 0 0 0 0 0 0
18 17 13 10 7 5 3 3 3 3 4 4 6 6 4 2 2 2 2 2 1 1 2 2 1 1 2 2 1 0 0 0 0 0 0 0 0 0 0 0 0 0 0
Wind_Speed
2 2 1 1 1 1 1 1 1 1 1 0 2 3 4 5 6 4 4 12 13 12 13 13 13 13 13 12 12 11 11 11 11 10 10 10 10 10 10 10 9 9 9
3 2 2 1 1 1 1 1 1 0 0 1 2 3 3 4 5 5 4 7 12 12 12 13 13 13 13 13 12 12 11 11 10 10 10 10 9 10 10 10 9 9 9
3 3 2 1 1 1 1 0 0 1 1 1 1 2 3 3 4 5 5 3 5 10 12 12 13 13 13 13 13 13 12 11 11 10 10 10 10 10 10 9 9 9 9
4 3 2 2 1 1 1 1 0 1 1 1 1 1 2 3 4 5 4 4 3 4 8 12 12 12 13 13 13 14 13 12 11 11 11 11 11 11 10 10 10 9 9
4 3 2 2 2 1 0 1 1 1 0 0 1 1 1 2 3 4 5 5 5 4 4 8 11 12 13 13 13 13 13 12 12 12 12 12 12 11 11 11 10 10 10
3 3 2 1 1 1 0 0 1 1 1 1 0 0 1 1 2 3 4 4 5 5 5 5 5 7 11 11 12 12 12 12 11 11 12 12 12 12 12 11 11 11 10
3 3 1 1 1 1 1 1 1 1 0 0 1 2 2 1 0 1 2 2 4 4 4 5 4 3 4 8 10 11 12 11 11 11 11 11 11 11 12 12 11 11 11
3 3 3 2 2 1 1 1 1 1 1 1 2 1 2 3 2 1 1 3 3 2 3 4 4 4 3 3 5 10 11 11 11 12 11 11 10 10 11 12 11 11 11
4 3 3 3 3 2 2 2 2 2 1 1 1 3 2 2 2 2 1 1 2 2 2 3 4 4 5 3 4 7 10 10 11 11 11 11 10 10 11 12 12 12 12
4 3 3 3 3 2 2 2 2 2 2 1 1 1 2 3 2 1 2 0 1 1 2 2 3 3 3 3 4 5 7 8 9 10 10 10 10 10 10 11 12 13 12
2 3 3 3 3 2 3 2 2 2 2 2 1 1 1 1 2 2 1 1 1 0 1 2 2 2 2 3 3 4 6 6 7 7 7 7 8 9 9 9 10 11 11
1 2 3 3 3 3 3 3 2 2 2 2 1 1 2 1 2 2 2 1 0 1 0 1 1 2 2 2 4 5 6 6 6 5 5 4 4 5 5 6 7 8 9
1 3 2 2 2 3 3 2 2 2 2 2 2 1 1 2 2 2 2 2 1 1 0 0 1 1 2 2 2 5 5 6 5 5 4 4 3 2 2 3 4 5 6
2 2 2 2 2 2 2 2 1 2 1 2 2 2 1 1 2 2 3 3 1 0 0 1 1 0 1 1 2 3 3 5 5 5 4 4 3 2 2 2 1 1 2
2 2 1 1 1 2 2 2 1 1 1 1 1 1 1 1 1 1 2 3 3 2 1 1 0 0 0 1 1 2 2 5 6 6 5 5 4 3 3 3 2 2 1
1 1 1 1 1 1 1 2 1 1 1 1 1 0 0 1 1 1 1 2 2 3 2 1 0 0 1 2 3 2 3 5 5 6 6 6 5 4 4 3 3 2 2
0 1 1 1 2 2 2 2 2 1 1 0 0 0 1 1 0 0 1 1 2 3 2 0 1 1 2 3 3 3 3 3 3 5 6 6 5 5 4 4 3 3 3
0 0 1 1 1 1 1 2 1 1 1 1 1 0 1 0 0 0 1 1 1 2 3 2 1 1 2 3 3 3 3 3 3 5 5 6 5 4 4 3 3 3 2
1 1 1 1 1 1 1 2 2 1 1 1 0 1 1 0 0 1 1 1 1 2 2 3 1 1 1 2 3 3 3 2 3 4 5 5 5 4 3 3 3 3 2
1 1 1 1 1 1 1 2 2 2 2 1 1 1 1 1 1 1 2 2 2 3 3 3 2 2 1 1 2 2 2 1 1 2 3 3 4 3 3 2 3 3 2
1 1 1 1 1 1 1 2 2 3 2 2 1 1 2 3 4 3 3 2 3 3 3 3 2 2 1 1 1 1 2 1 1 1 2 2 2 2 1 1 2 2 2
1 2 1 1 1 1 2 2 2 2 2 2 1 1 2 3 4 5 5 5 4 4 4 3 2 2 1 1 1 2 2 1 0 1 2 1 1 1 1 0 1 1 1
2 2 1 2 2 2 2 3 3 3 3 2 2 2 2 3 3 3 5 6 5 5 5 5 4 3 3 3 3 2 1 1 1 1 2 1 1 1 1 1 2 1 1
2 2 2 2 2 2 3 3 3 3 4 3 3 2 2 2 3 4 4 4 3 3 2 2 3 3 2 2 3 3 4 2 1 1 1 1 1 1 1 1 2 1 1
3 2 2 2 3 3 4 4 3 3 3 3 3 3 3 3 4 5 5 4 3 2 3 4 3 3 4 4 4 4 3 3 1 1 1 2 0 0 1 1 2 2 2
3 2 3 3 3 2 4 5 4 3 3 2 2 3 4 4 4 5 4 4 3 1 2 3 3 3 3 3 4 3 3 3 2 0 1 1 1 1 1 2 1 1 2
Wind_Direction
158 163 169 178 212 200 209 206 207 248 286 138 146 154 161 157 161 165 174 179 180 182 184 183 183 183 182 183 183 184 183 184 184 182 183 182 180 178 178 178 178 177 178
161 158 160 170 197 207 208 199 196 186 157 131 138 147 164 162 167 170 175 183 185 187 188 187 189 191 191 190 190 187 189 190 187 187 189 188 187 186 187 187 186 186 184
150 151 153 168 189 193 180 127 25 53 85 93 123 150 163 170 171 176 178 183 192 198 196 195 197 197 198 198 197 194 195 194 192 193 194 193 192 191 194 194 194 193 192
154 148 151 182 182 155 131 123 80 48 43 88 141 181 173 172 186 182 182 187 190 199 205 205 203 204 204 204 201 199 200 199 198 199 199 198 198 198 198 199 201 202 200
161 153 165 192 166 129 150 204 110 131 128 193 202 202 193 190 198 191 186 190 194 194 198 213 211 210 210 206 204 204 203 201 202 204 204 205 204 203 203 203 205 206 207
169 158 175 186 158 133 177 187 154 106 160 212 241 353 255 223 205 193 191 188 193 196 197 206 210 216 212 206 204 205 203 203 205 208 209 210 210 208 207 206 207 209 211
175 163 170 172 164 172 204 186 149 100 313 102 67 6 348 347 213 193 186 181 191 197 192 199 197 200 203 205 205 206 207 207 207 207 209 211 212 212 211 211 212 213 214
186 182 182 184 181 177 213 200 141 137 245 148 127 88 359 348 339 258 191 192 195 185 184 193 189 191 197 194 202 208 213 214 215 215 213 212 214 214 214 215 214 214 216
198 195 185 185 188 178 201 213 179 163 196 257 152 145 148 225 301 327 292 192 172 166 184 191 195 196 198 198 203 213 213 214 217 219 217 216 217 218 220 221 220 219 219
207 199 195 190 194 192 205 222 193 182 162 214 271 178 171 169 161 309 335 336 185 181 185 188 191 195 198 198 202 206 210 213 218 221 222 221 220 222 223 225 224 222 221
228 212 201 193 198 203 211 221 207 196 176 182 191 190 119 122 146 155 223 309 8 332 179 189 182 184 187 192 197 198 198 204 208 212 218 220 221 223 226 228 230 228 228
259 241 207 201 206 206 210 213 214 198 194 193 186 170 165 169 184 166 177 192 206 289 251 208 182 185 192 193 192 181 188 197 199 199 199 204 213 216 219 222 227 231 233
251 253 225 204 208 215 209 204 206 210 199 195 200 198 187 190 175 160 148 170 190 250 309 338 212 193 194 194 188 172 178 184 186 183 179 175 178 188 200 216 227 234 237
227 242 222 205 205 204 204 188 192 211 192 199 212 198 186 209 178 163 160 156 145 327 324 264 316 233 200 172 161 170 175 168 166 163 157 148 142 141 131 120 153 200 222
233 231 204 191 200 198 195 170 179 210 184 192 211 205 201 230 200 176 164 162 158 175 248 244 221 2 33 96 133 139 136 141 150 150 145 134 123 117 111 106 114 113 105
260 170 180 209 233 219 199 172 176 193 151 164 165 149 261 253 213 182 178 171 161 164 190 232 186 156 93 100 98 104 111 118 130 138 136 130 126 122 117 114 111 108 109
171 149 166 179 209 222 211 173 174 157 142 137 276 186 250 240 186 218 162 149 155 145 155 160 59 93 85 93 84 79 81 82 98 119 123 125 125 123 119 111 104 99 95
131 152 144 153 190 201 170 155 156 141 150 177 238 194 277 274 108 174 148 146 144 139 143 148 123 82 84 107 102 93 85 89 88 99 111 118 120 120 120 120 117 109 98
101 73 103 110 112 112 119 128 134 126 127 158 213 176 257 109 78 86 106 115 117 114 121 134 134 91 84 100 95 88 82 73 94 93 92 100 109 111 111 116 123 117 105
138 136 124 136 133 126 125 126 126 118 102 70 47 71 75 126 141 132 110 107 110 106 108 115 117 102 90 94 95 98 78 59 68 73 83 91 92 100 106 113 113 113 107
146 153 124 89 84 108 116 132 133 129 118 93 55 61 73 89 98 112 117 122 118 115 113 116 118 105 96 108 126 147 133 100 31 55 74 59 55 44 39 60 90 104 109
120 107 99 95 79 65 61 97 131 125 117 116 97 54 67 66 79 85 90 99 118 133 139 135 133 138 171 169 155 150 145 126 356 335 104 55 73 48 2 2 83 95 100
103 100 102 95 86 67 77 93 107 115 103 93 83 69 72 72 83 90 80 73 73 95 132 150 150 167 181 192 167 156 156 147 187 235 122 71 36 41 341 26 70 80 73
114 110 100 102 94 58 67 87 96 94 87 76 71 77 87 72 78 95 95 81 69 60 92 127 153 180 182 182 174 169 161 133 74 18 90 116 15 0 345 360 18 46 35
113 106 101 96 90 55 61 82 94 92 85 68 58 60 91 94 84 92 97 93 71 37 53 83 105 112 110 111 126 117 115 111 76 335 11 119 144 30 353 333 337 10 16
123 109 83 81 96 84 74 84 97 102 94 75 55 48 68 90 93 95 102 105 96 30 50 56 59 60 74 77 92 120 143 137 128 248 289 124 162 123 31 318 317 339 3